Location: Moena
(46.3667°N, 11.6500°E)
Time: 09:32:10
(UTC+00:00)

GP-B - Pass Details

Date: 16 June 2021
Orbit: 631 x 635 km, 89.8° (Epoch: 28 July)

Event Time Altitude Azimuth Distance (km) Brightness Sun altitude
Rises 21:52:43 0° 22° (NNE) 2,944 7.3 -17.8°
Reaches altitude 10° 21:56:52 10° 60° (ENE) 2,026 5.8 -18.1°
Maximum altitude 21:57:59 11° 75° (ENE) 1,970 5.6 -18.1°
Drops below altitude 10° 21:59:06 10° 89° (E) 2,022 5.5 -18.2°
Enters shadow 21:59:37 - 96° (E) 2,082 5.5 -18.2°
